Time,TemperatureF,DewpointF,PressureIn,WindDirection,WindDirectionDegrees,WindSpeedMPH,WindSpeedGustMPH,Humidity,HourlyPrecipIn,Conditions,Clouds,dailyrainin,SoftwareType,DateUTC
2013-03-31 00:02:00,31.0,30.0,-100.00,NW,305,12.0,17.0,95,0.00,,,0.01,,2013-03-31 05:02:00,
2013-03-31 00:12:00,31.0,30.0,-100.00,NW,320,12.0,17.0,95,0.00,,,0.01,,2013-03-31 05:12:00,
2013-03-31 00:22:00,31.0,30.0,-100.00,NW,315,14.0,19.0,95,0.00,,,0.01,,2013-03-31 05:22:00,
2013-03-31 00:32:00,31.0,30.0,-100.00,NW,320,12.0,16.0,95,0.00,,,0.01,,2013-03-31 05:32:00,
2013-03-31 00:42:00,31.0,30.0,-100.00,NW,320,11.0,16.0,95,0.00,,,0.01,,2013-03-31 05:42:00,
2013-03-31 00:52:00,32.0,30.0,-100.00,NW,315,10.0,13.0,95,0.00,,,0.01,,2013-03-31 05:52:00,
2013-03-31 01:02:00,32.0,30.0,-100.00,WNW,300,6.0,11.0,95,0.00,,,0.01,,2013-03-31 06:02:00,
2013-03-31 01:12:00,32.0,30.0,-100.00,NW,310,9.0,11.0,95,0.00,,,0.01,,2013-03-31 06:12:00,
2013-03-31 01:22:00,32.0,30.0,-100.00,NW,310,11.0,15.0,95,0.00,,,0.01,,2013-03-31 06:22:00,
2013-03-31 01:32:00,31.0,30.0,-100.00,NW,305,10.0,14.0,95,0.00,,,0.01,,2013-03-31 06:32:00,
2013-03-31 01:42:00,31.0,30.0,-100.00,WNW,295,10.0,17.0,95,0.00,,,0.00,,2013-03-31 06:42:00,
2013-03-31 01:52:00,31.0,30.0,-100.00,WNW,295,11.0,15.0,95,0.00,,,0.00,,2013-03-31 06:52:00,
2013-03-31 02:02:00,31.0,30.0,-100.00,WNW,295,9.0,14.0,95,0.00,,,0.00,,2013-03-31 07:02:00,
2013-03-31 02:12:00,31.0,30.0,-100.00,WNW,295,9.0,17.0,95,0.00,,,0.00,,2013-03-31 07:12:00,
2013-03-31 02:22:00,31.0,30.0,-100.00,WNW,295,10.0,17.0,95,0.00,,,0.00,,2013-03-31 07:22:00,
2013-03-31 02:32:00,31.0,30.0,-100.00,WNW,295,13.0,17.0,95,0.00,,,0.00,,2013-03-31 07:32:00,
2013-03-31 02:42:00,31.0,30.0,-100.00,WNW,295,14.0,20.0,95,0.00,,,0.00,,2013-03-31 07:42:00,
2013-03-31 02:52:00,31.0,30.0,-100.00,WNW,295,17.0,21.0,95,0.00,,,0.00,,2013-03-31 07:52:00,
2013-03-31 03:02:00,31.0,30.0,-100.00,WNW,290,14.0,20.0,95,0.00,,,0.00,,2013-03-31 08:02:00,
2013-03-31 03:12:00,31.0,30.0,-100.00,WNW,295,12.0,19.0,95,0.00,,,0.00,,2013-03-31 08:12:00,
2013-03-31 03:22:00,31.0,30.0,-100.00,WNW,285,11.0,17.0,95,0.00,,,0.00,,2013-03-31 08:22:00,
2013-03-31 03:32:00,31.0,30.0,-100.00,WNW,285,9.0,14.0,95,0.00,,,0.00,,2013-03-31 08:32:00,
2013-03-31 03:42:00,31.0,30.0,-100.00,WNW,290,11.0,15.0,95,0.00,,,0.00,,2013-03-31 08:42:00,
2013-03-31 03:52:00,31.0,30.0,-100.00,WNW,285,11.0,13.0,95,0.00,,,0.00,,2013-03-31 08:52:00,
2013-03-31 04:02:00,31.0,30.0,-100.00,WNW,295,11.0,16.0,94,0.00,,,0.00,,2013-03-31 09:02:00,
2013-03-31 04:12:00,31.0,30.0,-100.00,WNW,295,12.0,16.0,94,0.00,,,0.00,,2013-03-31 09:12:00,
2013-03-31 04:22:00,31.0,30.0,-100.00,WNW,295,11.0,16.0,94,0.00,,,0.00,,2013-03-31 09:22:00,
2013-03-31 04:33:00,32.0,30.0,-100.00,WNW,300,13.0,17.0,94,0.00,,,0.00,,2013-03-31 09:33:00,
2013-03-31 04:42:00,32.0,30.0,-100.00,WNW,295,14.0,19.0,93,0.00,,,0.00,,2013-03-31 09:42:00,
2013-03-31 04:53:00,32.0,30.0,-100.00,NW,305,16.0,21.0,93,0.00,,,0.00,,2013-03-31 09:53:00,
2013-03-31 05:03:00,32.0,30.0,-100.00,NW,310,17.0,21.0,93,0.00,,,0.00,,2013-03-31 10:03:00,
2013-03-31 05:13:00,31.0,30.0,-100.00,NW,315,20.0,27.0,91,0.00,,,0.00,,2013-03-31 10:13:00,
2013-03-31 05:23:00,31.0,28.0,-100.00,NW,315,21.0,27.0,90,0.00,,,0.00,,2013-03-31 10:23:00,
2013-03-31 05:32:00,31.0,28.0,-100.00,NW,315,22.0,29.0,90,0.00,,,0.00,,2013-03-31 10:32:00,
2013-03-31 05:42:00,31.0,28.0,-100.00,NW,320,21.0,27.0,90,0.00,,,0.00,,2013-03-31 10:42:00,
2013-03-31 05:52:00,32.0,28.0,-100.00,NW,320,18.0,26.0,90,0.00,,,0.00,,2013-03-31 10:52:00,
2013-03-31 06:02:00,32.0,28.0,-100.00,NW,320,19.0,22.0,90,0.00,,,0.00,,2013-03-31 11:02:00,
2013-03-31 06:12:00,31.0,28.0,-100.00,NW,320,19.0,26.0,90,0.00,,,0.00,,2013-03-31 11:12:00,
2013-03-31 06:23:00,31.0,28.0,-100.00,NW,315,19.0,25.0,90,0.00,,,0.00,,2013-03-31 11:23:00,
2013-03-31 06:32:00,31.0,28.0,-100.00,NW,325,20.0,25.0,90,0.00,,,0.00,,2013-03-31 11:32:00,
2013-03-31 06:42:00,31.0,28.0,-100.00,NW,320,17.0,24.0,90,0.00,,,0.00,,2013-03-31 11:42:00,
2013-03-31 06:52:00,31.0,28.0,-100.00,NW,320,17.0,23.0,90,0.00,,,0.00,,2013-03-31 11:52:00,
2013-03-31 07:02:00,31.0,28.0,-100.00,NNW,330,18.0,22.0,90,0.00,,,0.00,,2013-03-31 12:02:00,
2013-03-31 07:12:00,31.0,28.0,-100.00,NNW,330,18.0,22.0,90,0.00,,,0.00,,2013-03-31 12:12:00,
2013-03-31 07:22:00,31.0,28.0,-100.00,NNW,330,18.0,21.0,88,0.00,,,0.00,,2013-03-31 12:22:00,
2013-03-31 07:33:00,31.0,28.0,-100.00,NNW,335,14.0,21.0,87,0.00,,,0.00,,2013-03-31 12:33:00,
2013-03-31 07:42:00,31.0,28.0,-100.00,NNW,335,14.0,22.0,86,0.00,,,0.00,,2013-03-31 12:42:00,
2013-03-31 07:52:00,31.0,27.0,-100.00,NNW,345,15.0,24.0,85,0.00,,,0.00,,2013-03-31 12:52:00,
2013-03-31 08:02:00,31.0,27.0,-100.00,NNW,340,17.0,24.0,83,0.00,,,0.00,,2013-03-31 13:02:00,
2013-03-31 08:12:00,31.0,27.0,-100.00,North,350,20.0,30.0,81,0.00,,,0.00,,2013-03-31 13:12:00,
2013-03-31 08:22:00,31.0,27.0,-100.00,North,355,17.0,24.0,82,0.00,,,0.00,,2013-03-31 13:22:00,
2013-03-31 08:32:00,30.0,25.0,-100.00,NNW,345,21.0,27.0,81,0.00,,,0.00,,2013-03-31 13:32:00,
2013-03-31 08:42:00,30.0,25.0,-100.00,NNW,345,17.0,30.0,80,0.00,,,0.00,,2013-03-31 13:42:00,
2013-03-31 08:52:00,30.0,23.0,-100.00,North,0,18.0,26.0,75,0.00,,,0.00,,2013-03-31 13:52:00,
2013-03-31 09:02:00,29.0,21.0,-100.00,North,0,25.0,32.0,70,0.00,,,0.00,,2013-03-31 14:02:00,
2013-03-31 09:12:00,29.0,21.0,-100.00,North,350,23.0,31.0,69,0.00,,,0.00,,2013-03-31 14:12:00,
2013-03-31 09:22:00,29.0,19.0,-100.00,North,0,24.0,34.0,68,0.00,,,0.00,,2013-03-31 14:22:00,
2013-03-31 09:32:00,29.0,19.0,-100.00,North,0,18.0,37.0,69,0.00,,,0.00,,2013-03-31 14:32:00,
2013-03-31 09:42:00,28.0,19.0,-100.00,NNW,345,21.0,30.0,69,0.00,,,0.00,,2013-03-31 14:42:00,
2013-03-31 09:52:00,28.0,19.0,-100.00,North,350,17.0,29.0,68,0.00,,,0.00,,2013-03-31 14:52:00,
2013-03-31 10:02:00,28.0,19.0,-100.00,North,0,20.0,30.0,67,0.00,,,0.00,,2013-03-31 15:02:00,
2013-03-31 10:12:00,28.0,18.0,-100.00,North,0,25.0,35.0,66,0.00,,,0.00,,2013-03-31 15:12:00,
2013-03-31 10:22:00,28.0,18.0,-100.00,North,0,19.0,41.0,65,0.00,,,0.00,,2013-03-31 15:22:00,
2013-03-31 10:33:00,28.0,18.0,-100.00,North,0,21.0,31.0,65,0.00,,,0.00,,2013-03-31 15:33:00,
2013-03-31 10:43:00,29.0,18.0,-100.00,North,0,24.0,31.0,62,0.00,,,0.00,,2013-03-31 15:43:00,
2013-03-31 10:53:00,27.0,18.0,-100.00,North,350,23.0,33.0,63,0.00,,,0.00,,2013-03-31 15:53:00,
2013-03-31 11:03:00,27.0,14.0,-100.00,NNW,340,24.0,32.0,58,0.00,,,0.00,,2013-03-31 16:03:00,
2013-03-31 11:13:00,27.0,14.0,-100.00,North,0,21.0,33.0,59,0.00,,,0.00,,2013-03-31 16:13:00,
2013-03-31 11:23:00,27.0,12.0,-100.00,North,0,26.0,34.0,53,0.00,,,0.01,,2013-03-31 16:23:00,
2013-03-31 11:33:00,27.0,12.0,-100.00,North,0,24.0,37.0,52,0.00,,,0.01,,2013-03-31 16:33:00,
2013-03-31 11:42:00,28.0,14.0,-100.00,North,0,20.0,31.0,55,0.00,,,0.01,,2013-03-31 16:42:00,
2013-03-31 11:53:00,26.0,10.0,-100.00,North,0,24.0,33.0,51,0.00,,,0.01,,2013-03-31 16:53:00,
2013-03-31 12:03:00,27.0,10.0,-100.00,North,0,22.0,35.0,49,0.00,,,0.01,,2013-03-31 17:03:00,
2013-03-31 12:12:00,27.0,10.0,-100.00,North,0,23.0,31.0,51,0.00,,,0.01,,2013-03-31 17:12:00,
2013-03-31 12:22:00,27.0,12.0,-100.00,North,0,22.0,32.0,52,0.00,,,0.01,,2013-03-31 17:22:00,
2013-03-31 12:32:00,27.0,12.0,-100.00,North,0,23.0,29.0,52,0.00,,,0.01,,2013-03-31 17:32:00,
2013-03-31 12:42:00,28.0,12.0,-100.00,North,0,17.0,29.0,53,0.00,,,0.01,,2013-03-31 17:42:00,
2013-03-31 12:52:00,27.0,12.0,-100.00,NNW,340,21.0,27.0,54,0.00,,,0.01,,2013-03-31 17:52:00,
2013-03-31 13:02:00,27.0,12.0,-100.00,North,0,22.0,29.0,54,0.00,,,0.01,,2013-03-31 18:02:00,
2013-03-31 13:12:00,27.0,12.0,-100.00,North,0,19.0,31.0,54,0.00,,,0.01,,2013-03-31 18:12:00,
2013-03-31 13:22:00,27.0,14.0,-100.00,NNW,345,17.0,29.0,56,0.00,,,0.01,,2013-03-31 18:22:00,
2013-03-31 13:32:00,27.0,14.0,-100.00,North,0,19.0,27.0,56,0.00,,,0.01,,2013-03-31 18:32:00,
2013-03-31 13:42:00,26.0,12.0,-100.00,NNW,340,21.0,30.0,56,0.00,,,0.01,,2013-03-31 18:42:00,
2013-03-31 13:52:00,26.0,12.0,-100.00,North,0,21.0,29.0,53,0.00,,,0.01,,2013-03-31 18:52:00,
2013-03-31 14:03:00,26.0,12.0,-100.00,North,350,19.0,26.0,54,0.00,,,0.01,,2013-03-31 19:03:00,
2013-03-31 14:12:00,27.0,12.0,-100.00,North,0,20.0,28.0,54,0.00,,,0.01,,2013-03-31 19:12:00,
2013-03-31 14:22:00,26.0,10.0,-100.00,North,0,19.0,27.0,53,0.00,,,0.01,,2013-03-31 19:22:00,
2013-03-31 14:32:00,26.0,10.0,-100.00,NNW,330,21.0,29.0,52,0.00,,,0.01,,2013-03-31 19:32:00,
2013-03-31 14:42:00,26.0,10.0,-100.00,NNW,340,22.0,26.0,52,0.00,,,0.01,,2013-03-31 19:42:00,
2013-03-31 14:53:00,26.0,12.0,-100.00,NNW,345,18.0,27.0,53,0.00,,,0.01,,2013-03-31 19:53:00,
2013-03-31 15:02:00,26.0,12.0,-100.00,North,350,18.0,27.0,53,0.00,,,0.01,,2013-03-31 20:02:00,
2013-03-31 15:12:00,26.0,12.0,-100.00,NNW,340,19.0,27.0,53,0.00,,,0.01,,2013-03-31 20:12:00,
2013-03-31 15:22:00,27.0,12.0,-100.00,North,0,21.0,27.0,53,0.00,,,0.01,,2013-03-31 20:22:00,
2013-03-31 15:33:00,26.0,12.0,-100.00,North,0,16.0,25.0,55,0.00,,,0.01,,2013-03-31 20:33:00,
2013-03-31 15:43:00,26.0,12.0,-100.00,NNW,330,24.0,27.0,55,0.00,,,0.01,,2013-03-31 20:43:00,
2013-03-31 15:52:00,26.0,12.0,-100.00,North,0,19.0,29.0,54,0.00,,,0.01,,2013-03-31 20:52:00,
2013-03-31 16:02:00,26.0,12.0,-100.00,North,0,19.0,25.0,54,0.00,,,0.01,,2013-03-31 21:02:00,
2013-03-31 16:12:00,26.0,12.0,-100.00,North,0,15.0,27.0,54,0.00,,,0.01,,2013-03-31 21:12:00,
2013-03-31 16:22:00,26.0,12.0,-100.00,North,0,19.0,24.0,55,0.00,,,0.01,,2013-03-31 21:22:00,
2013-03-31 16:33:00,26.0,12.0,-100.00,NNW,340,19.0,25.0,56,0.00,,,0.01,,2013-03-31 21:33:00,
2013-03-31 16:43:00,26.0,12.0,-100.00,NNW,335,17.0,24.0,56,0.00,,,0.01,,2013-03-31 21:43:00,
2013-03-31 16:53:00,26.0,12.0,-100.00,North,0,20.0,24.0,53,0.00,,,0.01,,2013-03-31 21:53:00,
2013-03-31 17:03:00,26.0,10.0,-100.00,North,0,17.0,26.0,53,0.00,,,0.01,,2013-03-31 22:03:00,
2013-03-31 17:13:00,26.0,10.0,-100.00,North,0,22.0,28.0,51,0.00,,,0.01,,2013-03-31 22:13:00,
2013-03-31 17:23:00,25.0,10.0,-100.00,NNW,340,19.0,27.0,53,0.00,,,0.01,,2013-03-31 22:23:00,
2013-03-31 17:33:00,25.0,10.0,-100.00,NNW,345,13.0,27.0,54,0.00,,,0.01,,2013-03-31 22:33:00,
2013-03-31 17:42:00,25.0,10.0,-100.00,North,0,21.0,30.0,53,0.00,,,0.01,,2013-03-31 22:42:00,
2013-03-31 17:52:00,24.0,10.0,-100.00,North,355,18.0,27.0,55,0.00,,,0.01,,2013-03-31 22:52:00,
2013-03-31 18:03:00,24.0,10.0,-100.00,NNW,345,20.0,27.0,55,0.00,,,0.01,,2013-03-31 23:03:00,
2013-03-31 18:13:00,24.0,10.0,-100.00,North,355,21.0,29.0,57,0.00,,,0.01,,2013-03-31 23:13:00,
2013-03-31 18:22:00,24.0,10.0,-100.00,North,355,22.0,31.0,57,0.00,,,0.01,,2013-03-31 23:22:00,
2013-03-31 18:32:00,23.0,10.0,-100.00,North,0,25.0,35.0,56,0.00,,,0.01,,2013-03-31 23:32:00,
2013-03-31 18:42:00,23.0,10.0,-100.00,North,0,19.0,27.0,57,0.00,,,0.01,,2013-03-31 23:42:00,
2013-03-31 18:52:00,23.0,10.0,-100.00,NNW,335,19.0,27.0,57,0.00,,,0.01,,2013-03-31 23:52:00,
2013-03-31 19:02:00,23.0,10.0,-100.00,NNW,340,16.0,24.0,58,0.00,,,0.01,,2013-04-01 00:02:00,
2013-03-31 19:12:00,23.0,10.0,-100.00,North,355,13.0,24.0,59,0.00,,,0.01,,2013-04-01 00:12:00,
2013-03-31 19:22:00,22.0,10.0,-100.00,North,0,21.0,27.0,59,0.00,,,0.01,,2013-04-01 00:22:00,
2013-03-31 19:32:00,22.0,10.0,-100.00,North,0,22.0,28.0,59,0.00,,,0.01,,2013-04-01 00:32:00,
2013-03-31 19:42:00,21.0,10.0,-100.00,North,350,17.0,26.0,60,0.00,,,0.01,,2013-04-01 00:42:00,
2013-03-31 19:52:00,21.0,9.0,-100.00,NNW,340,16.0,27.0,61,0.00,,,0.01,,2013-04-01 00:52:00,
2013-03-31 20:02:00,21.0,10.0,-100.00,North,0,14.0,22.0,61,0.00,,,0.01,,2013-04-01 01:02:00,
2013-03-31 20:12:00,20.0,10.0,-100.00,North,0,21.0,26.0,62,0.00,,,0.01,,2013-04-01 01:12:00,
2013-03-31 20:22:00,20.0,9.0,-100.00,North,0,17.0,25.0,61,0.00,,,0.01,,2013-04-01 01:22:00,
2013-03-31 20:32:00,20.0,9.0,-100.00,North,0,17.0,23.0,62,0.00,,,0.01,,2013-04-01 01:32:00,
2013-03-31 20:42:00,20.0,10.0,-100.00,North,0,12.0,22.0,64,0.00,,,0.01,,2013-04-01 01:42:00,
2013-03-31 20:52:00,20.0,10.0,-100.00,North,0,14.0,18.0,64,0.00,,,0.01,,2013-04-01 01:52:00,
2013-03-31 21:02:00,20.0,10.0,-100.00,North,0,14.0,20.0,64,0.00,,,0.01,,2013-04-01 02:02:00,
2013-03-31 21:12:00,20.0,9.0,-100.00,North,0,18.0,24.0,64,0.00,,,0.01,,2013-04-01 02:12:00,
2013-03-31 21:22:00,20.0,9.0,-100.00,North,0,20.0,25.0,64,0.00,,,0.01,,2013-04-01 02:22:00,
2013-03-31 21:32:00,19.0,9.0,-100.00,North,0,17.0,24.0,64,0.00,,,0.01,,2013-04-01 02:32:00,
2013-03-31 21:42:00,19.0,9.0,-100.00,North,0,19.0,26.0,65,0.00,,,0.01,,2013-04-01 02:42:00,
2013-03-31 21:52:00,19.0,9.0,-100.00,North,0,12.0,24.0,66,0.00,,,0.01,,2013-04-01 02:52:00,
2013-03-31 22:02:00,19.0,9.0,-100.00,North,5,16.0,26.0,66,0.00,,,0.01,,2013-04-01 03:02:00,
2013-03-31 22:12:00,18.0,9.0,-100.00,North,0,14.0,23.0,66,0.00,,,0.01,,2013-04-01 03:12:00,
2013-03-31 22:22:00,18.0,9.0,-100.00,North,0,17.0,24.0,66,0.00,,,0.01,,2013-04-01 03:22:00,
2013-03-31 22:33:00,18.0,9.0,-100.00,North,0,17.0,23.0,67,0.00,,,0.01,,2013-04-01 03:33:00,
2013-03-31 22:43:00,18.0,9.0,-100.00,North,0,13.0,27.0,68,0.00,,,0.01,,2013-04-01 03:43:00,
2013-03-31 22:53:00,18.0,9.0,-100.00,North,0,17.0,26.0,68,0.00,,,0.01,,2013-04-01 03:53:00,
2013-03-31 23:02:00,18.0,9.0,-100.00,North,0,17.0,25.0,68,0.00,,,0.01,,2013-04-01 04:02:00,
2013-03-31 23:13:00,18.0,9.0,-100.00,North,0,17.0,24.0,68,0.00,,,0.01,,2013-04-01 04:13:00,
2013-03-31 23:23:00,17.0,9.0,-100.00,North,0,16.0,24.0,68,0.00,,,0.01,,2013-04-01 04:23:00,
2013-03-31 23:33:00,17.0,9.0,-100.00,North,0,11.0,22.0,68,0.00,,,0.01,,2013-04-01 04:33:00,
2013-03-31 23:43:00,17.0,9.0,-100.00,NNW,340,14.0,21.0,67,0.00,,,0.01,,2013-04-01 04:43:00,
2013-03-31 23:52:00,17.0,7.0,-100.00,NNW,340,13.0,22.0,67,0.00,,,0.01,,2013-04-01 04:52:00,